Starlink 5372

operational
NORAD ID: 54838 Int'l Des: 2022-177 Owner: SPXS Country: US Constellation: starlink
LEOCIRCULAR

Über Starlink 5372

Beschreibung wird geladen...

Live-Position

3D-Globus wird geladen...

Nächste Überflüge

Höhenverlauf

Altitude vs Time

uPlot chart will show altitude changes over time

Zweizeiliger Elementsatz

1 54838U 22177U 25351.02436642 .00000139 00000-0 25322-4 0 9991
2 54838 43.0026 222.2271 0000969 276.0832 83.9900 15.02535232164520
Epoch: 17. Dez. 2025 • Age: 19 hours

Aktueller Status

Höhe 569.5 km
Geschwindigkeit 7.58 km/s
Subsatellitenpunkt -37.61°S, 144.29°E
Startdatum 28. Dez. 2022
Alter 2.9 years
Typ internet

Technische Details

Klassifizierung Payload
Masse 305.00 kg
Trockenmasse 290.00 kg
Gesamtmasse 305.00 kg
Länge 0.20 m
Durchmesser 2.80 m
Spannweite 9.00 m
Form Box + pan
Hersteller SPXS
Bus-Typ Starlink
Phasenstatus In Orbit
Besitzer/Staat SPXS/US

Große Konstellationen

Loading constellations...